owner,sensor,date,latitude,longitude,vertical_datum,wind_speed,wind_to_direction,wind_speed_of_gust,qcFlag 
DISL,ioos:station:DISL:DISL:1,2009-03-01T00:00:00Z,30.2513,-88.0778,9.68,12.44,307.1,-9999.0,'1111122,1111122,1111122' 
DISL,ioos:station:DISL:DISL:1,2009-03-01T01:00:00Z,30.2513,-88.0778,9.68,13.35,309.5,-9999.0,'1111122,1111122,1111122' 
DISL,ioos:station:DISL:DISL:1,2009-03-01T02:00:00Z,30.2513,-88.0778,9.68,10.64,318.9,-9999.0,'1111122,1111122,1111122' 
DISL,ioos:station:DISL:DISL:1,2009-03-01T03:00:00Z,30.2513,-88.0778,9.68,12.77,312.1,-9999.0,'1111122,1111122,1111122' 
DISL,ioos:station:DISL:DISL:1,2009-03-01T04:00:00Z,30.2513,-88.0778,9.68,14.95,309.4,-9999.0,'1111122,1111122,1111122' 
DISL,ioos:station:DISL:DISL:1,2009-03-01T04:30:00Z,30.2513,-88.0778,9.68,15.16,315.7,-9999.0,'1111122,1111122,1111122' 
DISL,ioos:station:DISL:DISL:1,2009-03-01T05:30:00Z,30.2513,-88.0778,9.68,12.73,309.0,-9999.0,'1111122,1111122,1111122' 
DISL,ioos:station:DISL:DISL:1,2009-03-01T06:00:00Z,30.2513,-88.0778,9.68,12.44,306.4,-9999.0,'1111122,1111122,1111122' 
DISL,ioos:station:DISL:DISL:1,2009-03-01T06:30:00Z,30.2513,-88.0778,9.68,11.16,311.0,-9999.0,'1111122,1111122,1111122' 
DISL,ioos:station:DISL:DISL:1,2009-03-01T07:00:00Z,30.2513,-88.0778,9.68,10.61,310.0,-9999.0,'1111122,1111122,1111122' 
DISL,ioos:station:DISL:DISL:1,2009-03-01T07:30:00Z,30.2513,-88.0778,9.68,9.18,321.1,-9999.0,'1111122,1111122,1111122' 
DISL,ioos:station:DISL:DISL:1,2009-03-01T08:00:00Z,30.2513,-88.0778,9.68,10.58,301.1,-9999.0,'1111122,1111122,1111122' 
DISL,ioos:station:DISL:DISL:1,2009-03-01T08:30:00Z,30.2513,-88.0778,9.68,12.31,296.7,-9999.0,'1111122,1111122,1111122' 
DISL,ioos:station:DISL:DISL:1,2009-03-01T09:00:00Z,30.2513,-88.0778,9.68,12.67,319.1,-9999.0,'1111122,1111122,1111122' 
DISL,ioos:station:DISL:DISL:1,2009-03-01T09:30:00Z,30.2513,-88.0778,9.68,12.34,308.4,-9999.0,'1111122,1111122,1111122' 
DISL,ioos:station:DISL:DISL:1,2009-03-01T10:00:00Z,30.2513,-88.0778,9.68,10.45,297.4,-9999.0,'1111122,1111122,1111122' 
DISL,ioos:station:DISL:DISL:1,2009-03-01T10:30:00Z,30.2513,-88.0778,9.68,13.01,307.4,-9999.0,'1111122,1111122,1111122' 
DISL,ioos:station:DISL:DISL:1,2009-03-01T11:00:00Z,30.2513,-88.0778,9.68,12.39,312.4,-9999.0,'1111122,1111122,1111122' 
DISL,ioos:station:DISL:DISL:1,2009-03-01T11:30:00Z,30.2513,-88.0778,9.68,15.57,304.4,-9999.0,'1111122,1111122,1111122' 
DISL,ioos:station:DISL:DISL:1,2009-03-01T12:00:00Z,30.2513,-88.0778,9.68,14.98,304.2,-9999.0,'1111122,1111122,1111122' 
DISL,ioos:station:DISL:DISL:1,2009-03-01T12:30:00Z,30.2513,-88.0778,9.68,12.97,301.3,-9999.0,'1111122,1111122,1111122' 
DISL,ioos:station:DISL:DISL:1,2009-03-01T13:00:00Z,30.2513,-88.0778,9.68,13.14,300.8,-9999.0,'1111122,1111122,1111122' 
DISL,ioos:station:DISL:DISL:1,2009-03-01T13:30:00Z,30.2513,-88.0778,9.68,13.41,301.6,-9999.0,'1111122,1111122,1111122' 
DISL,ioos:station:DISL:DISL:1,2009-03-01T14:00:00Z,30.2513,-88.0778,9.68,13.04,310.7,-9999.0,'1111122,1111122,1111122' 
DISL,ioos:station:DISL:DISL:1,2009-03-01T14:30:00Z,30.2513,-88.0778,9.68,13.03,312.6,-9999.0,'1111122,1111122,1111122' 
DISL,ioos:station:DISL:DISL:1,2009-03-01T15:00:00Z,30.2513,-88.0778,9.68,12.79,307.7,-9999.0,'1111122,1111122,1111122' 
DISL,ioos:station:DISL:DISL:1,2009-03-01T15:30:00Z,30.2513,-88.0778,9.68,13.74,311.3,-9999.0,'1111122,1111122,1111122' 
DISL,ioos:station:DISL:DISL:1,2009-03-01T16:00:00Z,30.2513,-88.0778,9.68,12.52,304.7,-9999.0,'1111122,1111122,1111122' 
DISL,ioos:station:DISL:DISL:1,2009-03-01T16:30:00Z,30.2513,-88.0778,9.68,12.06,310.2,-9999.0,'1111122,1111122,1111122' 
DISL,ioos:station:DISL:DISL:1,2009-03-01T17:00:00Z,30.2513,-88.0778,9.68,11.15,305.8,-9999.0,'1111122,1111122,1111122' 
DISL,ioos:station:DISL:DISL:1,2009-03-01T17:30:00Z,30.2513,-88.0778,9.68,10.26,302.6,-9999.0,'1111122,1111122,1111122' 
DISL,ioos:station:DISL:DISL:1,2009-03-01T18:00:00Z,30.2513,-88.0778,9.68,9.37,295.6,-9999.0,'1111122,1111122,1111122' 
DISL,ioos:station:DISL:DISL:1,2009-03-01T18:30:00Z,30.2513,-88.0778,9.68,8.56,298.6,-9999.0,'1111122,1111122,1111122' 
DISL,ioos:station:DISL:DISL:1,2009-03-01T19:00:00Z,30.2513,-88.0778,9.68,8.28,292.0,-9999.0,'1111122,1111122,1111122' 
DISL,ioos:station:DISL:DISL:1,2009-03-01T19:30:00Z,30.2513,-88.0778,9.68,9.53,299.5,-9999.0,'1111122,1111122,1111122' 
DISL,ioos:station:DISL:DISL:1,2009-03-01T20:00:00Z,30.2513,-88.0778,9.68,9.62,298.0,-9999.0,'1111122,1111122,1111122' 
DISL,ioos:station:DISL:DISL:1,2009-03-01T20:30:00Z,30.2513,-88.0778,9.68,12.1,311.6,-9999.0,'1111122,1111122,1111122' 
DISL,ioos:station:DISL:DISL:1,2009-03-01T21:00:00Z,30.2513,-88.0778,9.68,11.82,307.8,-9999.0,'1111122,1111122,1111122' 
DISL,ioos:station:DISL:DISL:1,2009-03-01T21:30:00Z,30.2513,-88.0778,9.68,11.99,311.8,-9999.0,'1111122,1111122,1111122' 
DISL,ioos:station:DISL:DISL:1,2009-03-01T22:00:00Z,30.2513,-88.0778,9.68,12.66,305.6,-9999.0,'1111122,1111122,1111122' 
DISL,ioos:station:DISL:DISL:1,2009-03-01T22:30:00Z,30.2513,-88.0778,9.68,12.37,311.2,-9999.0,'1111122,1111122,1111122' 
DISL,ioos:station:DISL:DISL:1,2009-03-01T23:00:00Z,30.2513,-88.0778,9.68,10.78,311.3,-9999.0,'1111122,1111122,1111122' 
DISL,ioos:station:DISL:DISL:1,2009-03-01T23:30:00Z,30.2513,-88.0778,9.68,11.15,312.8,-9999.0,'1111122,1111122,1111122' 
DISL,ioos:station:DISL:DISL:1,2009-03-02T00:00:00Z,30.2513,-88.0778,9.68,10.9,310.1,-9999.0,'1111122,1111122,1111122' 
DISL,ioos:station:DISL:DISL:1,2009-03-02T00:30:00Z,30.2513,-88.0778,9.68,10.74,309.6,-9999.0,'1111122,1111122,1111122' 
DISL,ioos:station:DISL:DISL:1,2009-03-02T01:00:00Z,30.2513,-88.0778,9.68,10.68,309.1,-9999.0,'1111122,1111122,1111122' 
DISL,ioos:station:DISL:DISL:1,2009-03-02T01:30:00Z,30.2513,-88.0778,9.68,11.02,309.6,-9999.0,'1111122,1111122,1111122' 
DISL,ioos:station:DISL:DISL:1,2009-03-02T02:00:00Z,30.2513,-88.0778,9.68,10.79,308.6,-9999.0,'1111122,1111122,1111122' 
DISL,ioos:station:DISL:DISL:1,2009-03-02T02:30:00Z,30.2513,-88.0778,9.68,11.08,312.7,-9999.0,'1111122,1111122,1111122' 
DISL,ioos:station:DISL:DISL:1,2009-03-02T03:00:00Z,30.2513,-88.0778,9.68,11.46,317.8,-9999.0,'1111122,1111122,1111122' 
DISL,ioos:station:DISL:DISL:1,2009-03-02T03:30:00Z,30.2513,-88.0778,9.68,10.26,313.0,-9999.0,'1111122,1111122,1111122' 
DISL,ioos:station:DISL:DISL:1,2009-03-02T04:00:00Z,30.2513,-88.0778,9.68,11.43,319.0,-9999.0,'1111122,1111122,1111122' 
DISL,ioos:station:DISL:DISL:1,2009-03-02T04:30:00Z,30.2513,-88.0778,9.68,9.15,316.7,-9999.0,'1111122,1111122,1111122' 
DISL,ioos:station:DISL:DISL:1,2009-03-02T05:00:00Z,30.2513,-88.0778,9.68,10.23,320.6,-9999.0,'1111122,1111122,1111122' 
DISL,ioos:station:DISL:DISL:1,2009-03-02T05:30:00Z,30.2513,-88.0778,9.68,10.81,328.7,-9999.0,'1111122,1111122,1111122' 
DISL,ioos:station:DISL:DISL:1,2009-03-02T06:00:00Z,30.2513,-88.0778,9.68,9.96,332.0,-9999.0,'1111122,1111122,1111122' 
DISL,ioos:station:DISL:DISL:1,2009-03-02T06:30:00Z,30.2513,-88.0778,9.68,9.84,328.4,-9999.0,'1111122,1111122,1111122' 
DISL,ioos:station:DISL:DISL:1,2009-03-02T07:00:00Z,30.2513,-88.0778,9.68,9.59,335.4,-9999.0,'1111122,1111122,1111122' 
DISL,ioos:station:DISL:DISL:1,2009-03-02T07:30:00Z,30.2513,-88.0778,9.68,10.69,338.0,-9999.0,'1111122,1111122,1111122' 
DISL,ioos:station:DISL:DISL:1,2009-03-02T08:00:00Z,30.2513,-88.0778,9.68,10.97,333.7,-9999.0,'1111122,1111122,1111122' 
DISL,ioos:station:DISL:DISL:1,2009-03-02T08:30:00Z,30.2513,-88.0778,9.68,10.43,337.6,-9999.0,'1111122,1111122,1111122' 
DISL,ioos:station:DISL:DISL:1,2009-03-02T09:00:00Z,30.2513,-88.0778,9.68,8.94,333.4,-9999.0,'1111122,1111122,1111122' 
DISL,ioos:station:DISL:DISL:1,2009-03-02T09:30:00Z,30.2513,-88.0778,9.68,9.95,341.5,-9999.0,'1111122,1111122,1111122' 
DISL,ioos:station:DISL:DISL:1,2009-03-02T10:00:00Z,30.2513,-88.0778,9.68,9.88,337.0,-9999.0,'1111122,1111122,1111122' 
DISL,ioos:station:DISL:DISL:1,2009-03-02T10:30:00Z,30.2513,-88.0778,9.68,9.56,342.6,-9999.0,'1111122,1111122,1111122' 
DISL,ioos:station:DISL:DISL:1,2009-03-02T11:00:00Z,30.2513,-88.0778,9.68,9.35,330.0,-9999.0,'1111122,1111122,1111122' 
DISL,ioos:station:DISL:DISL:1,2009-03-02T11:30:00Z,30.2513,-88.0778,9.68,9.16,338.4,-9999.0,'1111122,1111122,1111122' 
DISL,ioos:station:DISL:DISL:1,2009-03-02T12:00:00Z,30.2513,-88.0778,9.68,8.88,335.7,-9999.0,'1111122,1111122,1111122' 
DISL,ioos:station:DISL:DISL:1,2009-03-02T12:30:00Z,30.2513,-88.0778,9.68,9.01,340.4,-9999.0,'1111122,1111122,1111122' 
DISL,ioos:station:DISL:DISL:1,2009-03-02T13:00:00Z,30.2513,-88.0778,9.68,9.95,342.8,-9999.0,'1111122,1111122,1111122' 
DISL,ioos:station:DISL:DISL:1,2009-03-02T13:30:00Z,30.2513,-88.0778,9.68,8.78,333.1,-9999.0,'1111122,1111122,1111122' 
DISL,ioos:station:DISL:DISL:1,2009-03-02T14:00:00Z,30.2513,-88.0778,9.68,8.72,333.6,-9999.0,'1111122,1111122,1111122' 
DISL,ioos:station:DISL:DISL:1,2009-03-02T14:30:00Z,30.2513,-88.0778,9.68,8.26,346.3,-9999.0,'1111122,1111122,1111122' 
DISL,ioos:station:DISL:DISL:1,2009-03-02T15:00:00Z,30.2513,-88.0778,9.68,8.24,342.7,-9999.0,'1111122,1111122,1111122' 
DISL,ioos:station:DISL:DISL:1,2009-03-02T15:30:00Z,30.2513,-88.0778,9.68,7.51,345.6,-9999.0,'1111122,1111122,1111122' 
DISL,ioos:station:DISL:DISL:1,2009-03-02T16:00:00Z,30.2513,-88.0778,9.68,6.44,352.0,-9999.0,'1111122,1111122,1111122' 
DISL,ioos:station:DISL:DISL:1,2009-03-02T16:30:00Z,30.2513,-88.0778,9.68,5.37,350.0,-9999.0,'1111122,1111122,1111122' 
DISL,ioos:station:DISL:DISL:1,2009-03-02T17:00:00Z,30.2513,-88.0778,9.68,4.73,1.009,-9999.0,'1111122,1111122,1111122' 
DISL,ioos:station:DISL:DISL:1,2009-03-02T17:30:00Z,30.2513,-88.0778,9.68,4.01,6.358,-9999.0,'1111122,1111122,1111122' 
DISL,ioos:station:DISL:DISL:1,2009-03-02T18:00:00Z,30.2513,-88.0778,9.68,3.75,8.66,-9999.0,'1111122,1111122,1111122' 
DISL,ioos:station:DISL:DISL:1,2009-03-02T18:30:00Z,30.2513,-88.0778,9.68,3.56,12.77,-9999.0,'1111122,1111122,1111122' 
DISL,ioos:station:DISL:DISL:1,2009-03-02T19:00:00Z,30.2513,-88.0778,9.68,2.85,11.76,-9999.0,'1111122,1111122,1111122' 
DISL,ioos:station:DISL:DISL:1,2009-03-02T19:30:00Z,30.2513,-88.0778,9.68,1.64,353.0,-9999.0,'1111122,1111122,1111122' 
DISL,ioos:station:DISL:DISL:1,2009-03-02T20:00:00Z,30.2513,-88.0778,9.68,0.57,62.24,-9999.0,'1111122,1111122,1111122' 
DISL,ioos:station:DISL:DISL:1,2009-03-02T20:30:00Z,30.2513,-88.0778,9.68,3.43,309.7,-9999.0,'1111122,1111122,1111122' 
DISL,ioos:station:DISL:DISL:1,2009-03-02T21:00:00Z,30.2513,-88.0778,9.68,5.31,324.0,-9999.0,'1111122,1111122,1111122' 
DISL,ioos:station:DISL:DISL:1,2009-03-02T21:30:00Z,30.2513,-88.0778,9.68,3.91,341.5,-9999.0,'1111122,1111122,1111122' 
DISL,ioos:station:DISL:DISL:1,2009-03-02T22:00:00Z,30.2513,-88.0778,9.68,4.72,353.1,-9999.0,'1111122,1111122,1111122' 
DISL,ioos:station:DISL:DISL:1,2009-03-02T22:30:00Z,30.2513,-88.0778,9.68,5.52,340.3,-9999.0,'1111122,1111122,1111122' 
DISL,ioos:station:DISL:DISL:1,2009-03-02T23:00:00Z,30.2513,-88.0778,9.68,5.79,349.7,-9999.0,'1111122,1111122,1111122' 
DISL,ioos:station:DISL:DISL:1,2009-03-02T23:30:00Z,30.2513,-88.0778,9.68,5.67,345.2,-9999.0,'1111122,1111122,1111122' 
DISL,ioos:station:DISL:DISL:1,2009-03-03T00:00:00Z,30.2513,-88.0778,9.68,5.86,328.2,-9999.0,'1111122,1111122,1111122' 
DISL,ioos:station:DISL:DISL:1,2009-03-03T00:30:00Z,30.2513,-88.0778,9.68,5.23,324.9,-9999.0,'1111122,1111122,1111122' 
DISL,ioos:station:DISL:DISL:1,2009-03-03T01:00:00Z,30.2513,-88.0778,9.68,5.84,317.3,-9999.0,'1111122,1111122,1111122' 
DISL,ioos:station:DISL:DISL:1,2009-03-03T01:30:00Z,30.2513,-88.0778,9.68,6.45,324.1,-9999.0,'1111122,1111122,1111122' 
DISL,ioos:station:DISL:DISL:1,2009-03-03T02:00:00Z,30.2513,-88.0778,9.68,6.1,328.3,-9999.0,'1111122,1111122,1111122' 
DISL,ioos:station:DISL:DISL:1,2009-03-03T02:30:00Z,30.2513,-88.0778,9.68,6.34,342.9,-9999.0,'1111122,1111122,1111122' 
DISL,ioos:station:DISL:DISL:1,2009-03-03T03:00:00Z,30.2513,-88.0778,9.68,6.65,342.5,-9999.0,'1111122,1111122,1111122' 
DISL,ioos:station:DISL:DISL:1,2009-03-03T03:30:00Z,30.2513,-88.0778,9.68,5.77,347.8,-9999.0,'1111122,1111122,1111122' 
DISL,ioos:station:DISL:DISL:1,2009-03-03T04:00:00Z,30.2513,-88.0778,9.68,8.4,16.32,-9999.0,'1111122,1111122,1111122' 
DISL,ioos:station:DISL:DISL:1,2009-03-03T04:30:00Z,30.2513,-88.0778,9.68,8.66,13.78,-9999.0,'1111122,1111122,1111122' 
DISL,ioos:station:DISL:DISL:1,2009-03-03T05:00:00Z,30.2513,-88.0778,9.68,8.16,15.0,-9999.0,'1111122,1111122,1111122' 
DISL,ioos:station:DISL:DISL:1,2009-03-03T05:30:00Z,30.2513,-88.0778,9.68,7.6,24.53,-9999.0,'1111122,1111122,1111122' 
DISL,ioos:station:DISL:DISL:1,2009-03-03T06:00:00Z,30.2513,-88.0778,9.68,7.73,25.3,-9999.0,'1111122,1111122,1111122' 
DISL,ioos:station:DISL:DISL:1,2009-03-03T06:30:00Z,30.2513,-88.0778,9.68,8.29,20.94,-9999.0,'1111122,1111122,1111122' 
DISL,ioos:station:DISL:DISL:1,2009-03-03T07:00:00Z,30.2513,-88.0778,9.68,8.58,16.4,-9999.0,'1111122,1111122,1111122' 
DISL,ioos:station:DISL:DISL:1,2009-03-03T07:30:00Z,30.2513,-88.0778,9.68,8.27,16.86,-9999.0,'1111122,1111122,1111122' 
DISL,ioos:station:DISL:DISL:1,2009-03-03T08:00:00Z,30.2513,-88.0778,9.68,8.38,17.84,-9999.0,'1111122,1111122,1111122' 
DISL,ioos:station:DISL:DISL:1,2009-03-03T08:30:00Z,30.2513,-88.0778,9.68,8.45,26.57,-9999.0,'1111122,1111122,1111122' 
DISL,ioos:station:DISL:DISL:1,2009-03-03T09:00:00Z,30.2513,-88.0778,9.68,9.12,23.26,-9999.0,'1111122,1111122,1111122' 
DISL,ioos:station:DISL:DISL:1,2009-03-03T09:30:00Z,30.2513,-88.0778,9.68,8.57,26.73,-9999.0,'1111122,1111122,1111122' 
DISL,ioos:station:DISL:DISL:1,2009-03-03T10:00:00Z,30.2513,-88.0778,9.68,8.89,35.65,-9999.0,'1111122,1111122,1111122' 
DISL,ioos:station:DISL:DISL:1,2009-03-03T10:30:00Z,30.2513,-88.0778,9.68,9.19,32.46,-9999.0,'1111122,1111122,1111122' 
DISL,ioos:station:DISL:DISL:1,2009-03-03T11:00:00Z,30.2513,-88.0778,9.68,9.38,36.57,-9999.0,'1111122,1111122,1111122' 
DISL,ioos:station:DISL:DISL:1,2009-03-03T11:30:00Z,30.2513,-88.0778,9.68,9.19,28.77,-9999.0,'1111122,1111122,1111122' 
DISL,ioos:station:DISL:DISL:1,2009-03-03T12:00:00Z,30.2513,-88.0778,9.68,8.34,33.13,-9999.0,'1111122,1111122,1111122' 
DISL,ioos:station:DISL:DISL:1,2009-03-03T12:30:00Z,30.2513,-88.0778,9.68,8.39,20.35,-9999.0,'1111122,1111122,1111122' 
DISL,ioos:station:DISL:DISL:1,2009-03-03T13:00:00Z,30.2513,-88.0778,9.68,8.93,33.0,-9999.0,'1111122,1111122,1111122' 
DISL,ioos:station:DISL:DISL:1,2009-03-03T13:30:00Z,30.2513,-88.0778,9.68,8.35,25.9,-9999.0,'1111122,1111122,1111122' 
DISL,ioos:station:DISL:DISL:1,2009-03-03T14:00:00Z,30.2513,-88.0778,9.68,7.35,32.63,-9999.0,'1111122,1111122,1111122' 
DISL,ioos:station:DISL:DISL:1,2009-03-03T14:30:00Z,30.2513,-88.0778,9.68,7.65,28.81,-9999.0,'1111122,1111122,1111122' 
DISL,ioos:station:DISL:DISL:1,2009-03-03T15:00:00Z,30.2513,-88.0778,9.68,6.31,34.13,-9999.0,'1111122,1111122,1111122' 
DISL,ioos:station:DISL:DISL:1,2009-03-03T15:30:00Z,30.2513,-88.0778,9.68,5.23,25.77,-9999.0,'1111122,1111122,1111122' 
DISL,ioos:station:DISL:DISL:1,2009-03-03T16:00:00Z,30.2513,-88.0778,9.68,4.37,16.41,-9999.0,'1111122,1111122,1111122' 
DISL,ioos:station:DISL:DISL:1,2009-03-03T16:30:00Z,30.2513,-88.0778,9.68,4.02,21.57,-9999.0,'1111122,1111122,1111122' 
DISL,ioos:station:DISL:DISL:1,2009-03-03T17:00:00Z,30.2513,-88.0778,9.68,3.76,9.87,-9999.0,'1111122,1111122,1111122' 
DISL,ioos:station:DISL:DISL:1,2009-03-03T17:30:00Z,30.2513,-88.0778,9.68,3.35,11.82,-9999.0,'1111122,1111122,1111122' 
DISL,ioos:station:DISL:DISL:1,2009-03-03T18:00:00Z,30.2513,-88.0778,9.68,2.4,26.37,-9999.0,'1111122,1111122,1111122' 
DISL,ioos:station:DISL:DISL:1,2009-03-03T18:30:00Z,30.2513,-88.0778,9.68,2.1,46.39,-9999.0,'1111122,1111122,1111122' 
DISL,ioos:station:DISL:DISL:1,2009-03-03T19:00:00Z,30.2513,-88.0778,9.68,1.91,10.96,-9999.0,'1111122,1111122,1111122' 
DISL,ioos:station:DISL:DISL:1,2009-03-03T19:30:00Z,30.2513,-88.0778,9.68,2.73,8.16,-9999.0,'1111122,1111122,1111122' 
DISL,ioos:station:DISL:DISL:1,2009-03-03T20:00:00Z,30.2513,-88.0778,9.68,3.2,19.78,-9999.0,'1111122,1111122,1111122' 
DISL,ioos:station:DISL:DISL:1,2009-03-03T20:30:00Z,30.2513,-88.0778,9.68,3.75,5.078,-9999.0,'1111122,1111122,1111122' 
DISL,ioos:station:DISL:DISL:1,2009-03-03T21:00:00Z,30.2513,-88.0778,9.68,2.0,25.76,-9999.0,'1111122,1111122,1111122' 
DISL,ioos:station:DISL:DISL:1,2009-03-03T21:30:00Z,30.2513,-88.0778,9.68,1.73,16.03,-9999.0,'1111122,1111122,1111122' 
DISL,ioos:station:DISL:DISL:1,2009-03-03T22:00:00Z,30.2513,-88.0778,9.68,1.15,61.95,-9999.0,'1111122,1111122,1111122' 
DISL,ioos:station:DISL:DISL:1,2009-03-03T22:30:00Z,30.2513,-88.0778,9.68,1.73,106.8,-9999.0,'1111122,1111122,1111122' 
DISL,ioos:station:DISL:DISL:1,2009-03-03T23:00:00Z,30.2513,-88.0778,9.68,1.71,128.2,-9999.0,'1111122,1111122,1111122' 
DISL,ioos:station:DISL:DISL:1,2009-03-03T23:30:00Z,30.2513,-88.0778,9.68,1.92,130.3,-9999.0,'1111122,1111122,1111122' 
DISL,ioos:station:DISL:DISL:1,2009-03-04T00:00:00Z,30.2513,-88.0778,9.68,1.44,147.8,-9999.0,'1111122,1111122,1111122' 
DISL,ioos:station:DISL:DISL:1,2009-03-04T00:30:00Z,30.2513,-88.0778,9.68,2.15,152.2,-9999.0,'1111122,1111122,1111122' 
DISL,ioos:station:DISL:DISL:1,2009-03-04T01:00:00Z,30.2513,-88.0778,9.68,1.9,134.3,-9999.0,'1111122,1111122,1111122' 
DISL,ioos:station:DISL:DISL:1,2009-03-04T01:30:00Z,30.2513,-88.0778,9.68,2.49,128.4,-9999.0,'1111122,1111122,1111122' 
DISL,ioos:station:DISL:DISL:1,2009-03-04T02:00:00Z,30.2513,-88.0778,9.68,2.98,120.1,-9999.0,'1111122,1111122,1111122' 
DISL,ioos:station:DISL:DISL:1,2009-03-04T02:30:00Z,30.2513,-88.0778,9.68,2.85,107.1,-9999.0,'1111122,1111122,1111122' 
DISL,ioos:station:DISL:DISL:1,2009-03-04T03:00:00Z,30.2513,-88.0778,9.68,2.73,105.4,-9999.0,'1111122,1111122,1111122' 
DISL,ioos:station:DISL:DISL:1,2009-03-04T03:30:00Z,30.2513,-88.0778,9.68,2.67,95.5,-9999.0,'1111122,1111122,1111122' 
DISL,ioos:station:DISL:DISL:1,2009-03-04T04:00:00Z,30.2513,-88.0778,9.68,2.41,94.7,-9999.0,'1111122,1111122,1111122' 
DISL,ioos:station:DISL:DISL:1,2009-03-04T04:30:00Z,30.2513,-88.0778,9.68,2.81,94.3,-9999.0,'1111122,1111122,1111122' 
DISL,ioos:station:DISL:DISL:1,2009-03-04T05:00:00Z,30.2513,-88.0778,9.68,3.43,85.7,-9999.0,'1111122,1111122,1111122' 
DISL,ioos:station:DISL:DISL:1,2009-03-04T05:30:00Z,30.2513,-88.0778,9.68,4.11,79.7,-9999.0,'1111122,1111122,1111122' 
DISL,ioos:station:DISL:DISL:1,2009-03-04T06:00:00Z,30.2513,-88.0778,9.68,4.69,71.7,-9999.0,'1111122,1111122,1111122' 
DISL,ioos:station:DISL:DISL:1,2009-03-04T06:30:00Z,30.2513,-88.0778,9.68,4.44,71.2,-9999.0,'1111122,1111122,1111122' 
DISL,ioos:station:DISL:DISL:1,2009-03-04T07:00:00Z,30.2513,-88.0778,9.68,4.29,78.7,-9999.0,'1111122,1111122,1111122' 
DISL,ioos:station:DISL:DISL:1,2009-03-04T07:30:00Z,30.2513,-88.0778,9.68,4.6,72.5,-9999.0,'1111122,1111122,1111122' 
DISL,ioos:station:DISL:DISL:1,2009-03-04T08:00:00Z,30.2513,-88.0778,9.68,4.99,70.9,-9999.0,'1111122,1111122,1111122' 
DISL,ioos:station:DISL:DISL:1,2009-03-04T08:30:00Z,30.2513,-88.0778,9.68,4.85,69.8,-9999.0,'1111122,1111122,1111122' 
DISL,ioos:station:DISL:DISL:1,2009-03-04T09:00:00Z,30.2513,-88.0778,9.68,5.37,63.61,-9999.0,'1111122,1111122,1111122' 
DISL,ioos:station:DISL:DISL:1,2009-03-04T09:30:00Z,30.2513,-88.0778,9.68,5.72,70.8,-9999.0,'1111122,1111122,1111122' 
DISL,ioos:station:DISL:DISL:1,2009-03-04T10:00:00Z,30.2513,-88.0778,9.68,5.28,67.28,-9999.0,'1111122,1111122,1111122' 
DISL,ioos:station:DISL:DISL:1,2009-03-04T10:30:00Z,30.2513,-88.0778,9.68,4.74,73.8,-9999.0,'1111122,1111122,1111122' 
DISL,ioos:station:DISL:DISL:1,2009-03-04T11:00:00Z,30.2513,-88.0778,9.68,4.94,69.33,-9999.0,'1111122,1111122,1111122' 
DISL,ioos:station:DISL:DISL:1,2009-03-04T11:30:00Z,30.2513,-88.0778,9.68,5.59,65.21,-9999.0,'1111122,1111122,1111122' 
DISL,ioos:station:DISL:DISL:1,2009-03-04T12:00:00Z,30.2513,-88.0778,9.68,6.07,60.15,-9999.0,'1111122,1111122,1111122' 
DISL,ioos:station:DISL:DISL:1,2009-03-04T12:30:00Z,30.2513,-88.0778,9.68,6.08,63.71,-9999.0,'1111122,1111122,1111122' 
DISL,ioos:station:DISL:DISL:1,2009-03-04T13:00:00Z,30.2513,-88.0778,9.68,6.32,63.53,-9999.0,'1111122,1111122,1111122' 
DISL,ioos:station:DISL:DISL:1,2009-03-04T13:30:00Z,30.2513,-88.0778,9.68,6.85,71.0,-9999.0,'1111122,1111122,1111122' 
DISL,ioos:station:DISL:DISL:1,2009-03-04T14:00:00Z,30.2513,-88.0778,9.68,6.62,68.94,-9999.0,'1111122,1111122,1111122' 
DISL,ioos:station:DISL:DISL:1,2009-03-04T14:30:00Z,30.2513,-88.0778,9.68,6.94,68.58,-9999.0,'1111122,1111122,1111122' 
DISL,ioos:station:DISL:DISL:1,2009-03-04T15:00:00Z,30.2513,-88.0778,9.68,6.43,70.5,-9999.0,'1111122,1111122,1111122' 
DISL,ioos:station:DISL:DISL:1,2009-03-04T15:30:00Z,30.2513,-88.0778,9.68,5.51,75.8,-9999.0,'1111122,1111122,1111122' 
DISL,ioos:station:DISL:DISL:1,2009-03-04T16:00:00Z,30.2513,-88.0778,9.68,4.84,71.6,-9999.0,'1111122,1111122,1111122' 
DISL,ioos:station:DISL:DISL:1,2009-03-04T16:30:00Z,30.2513,-88.0778,9.68,4.34,71.8,-9999.0,'1111122,1111122,1111122' 
DISL,ioos:station:DISL:DISL:1,2009-03-04T17:00:00Z,30.2513,-88.0778,9.68,4.88,92.6,-9999.0,'1111122,1111122,1111122' 
DISL,ioos:station:DISL:DISL:1,2009-03-04T17:30:00Z,30.2513,-88.0778,9.68,6.1,96.1,-9999.0,'1111122,1111122,1111122' 
DISL,ioos:station:DISL:DISL:1,2009-03-04T18:00:00Z,30.2513,-88.0778,9.68,5.73,107.3,-9999.0,'1111122,1111122,1111122' 
DISL,ioos:station:DISL:DISL:1,2009-03-04T18:30:00Z,30.2513,-88.0778,9.68,6.35,106.3,-9999.0,'1111122,1111122,1111122' 
DISL,ioos:station:DISL:DISL:1,2009-03-04T19:00:00Z,30.2513,-88.0778,9.68,5.99,111.5,-9999.0,'1111122,1111122,1111122' 
DISL,ioos:station:DISL:DISL:1,2009-03-04T19:30:00Z,30.2513,-88.0778,9.68,5.87,116.3,-9999.0,'1111122,1111122,1111122' 
DISL,ioos:station:DISL:DISL:1,2009-03-04T20:00:00Z,30.2513,-88.0778,9.68,5.27,119.0,-9999.0,'1111122,1111122,1111122' 
DISL,ioos:station:DISL:DISL:1,2009-03-04T20:30:00Z,30.2513,-88.0778,9.68,4.96,113.4,-9999.0,'1111122,1111122,1111122' 
DISL,ioos:station:DISL:DISL:1,2009-03-04T21:00:00Z,30.2513,-88.0778,9.68,4.46,122.2,-9999.0,'1111122,1111122,1111122' 
DISL,ioos:station:DISL:DISL:1,2009-03-04T21:30:00Z,30.2513,-88.0778,9.68,4.8,119.8,-9999.0,'1111122,1111122,1111122' 
DISL,ioos:station:DISL:DISL:1,2009-03-04T22:00:00Z,30.2513,-88.0778,9.68,4.36,125.5,-9999.0,'1111122,1111122,1111122' 
DISL,ioos:station:DISL:DISL:1,2009-03-04T22:30:00Z,30.2513,-88.0778,9.68,4.33,114.4,-9999.0,'1111122,1111122,1111122' 
DISL,ioos:station:DISL:DISL:1,2009-03-04T23:00:00Z,30.2513,-88.0778,9.68,4.95,118.0,-9999.0,'1111122,1111122,1111122' 
DISL,ioos:station:DISL:DISL:1,2009-03-04T23:30:00Z,30.2513,-88.0778,9.68,4.82,129.7,-9999.0,'1111122,1111122,1111122' 
DISL,ioos:station:DISL:DISL:1,2009-03-05T00:00:00Z,30.2513,-88.0778,9.68,5.27,125.6,-9999.0,'1111122,1111122,1111122' 
DISL,ioos:station:DISL:DISL:1,2009-03-05T00:30:00Z,30.2513,-88.0778,9.68,5.46,131.8,-9999.0,'1111122,1111122,1111122' 
DISL,ioos:station:DISL:DISL:1,2009-03-05T01:00:00Z,30.2513,-88.0778,9.68,4.96,125.2,-9999.0,'1111122,1111122,1111122' 
DISL,ioos:station:DISL:DISL:1,2009-03-05T01:30:00Z,30.2513,-88.0778,9.68,4.79,132.2,-9999.0,'1111122,1111122,1111122' 
DISL,ioos:station:DISL:DISL:1,2009-03-05T02:00:00Z,30.2513,-88.0778,9.68,3.94,131.2,-9999.0,'1111122,1111122,1111122' 
DISL,ioos:station:DISL:DISL:1,2009-03-05T02:30:00Z,30.2513,-88.0778,9.68,4.34,128.4,-9999.0,'1111122,1111122,1111122' 
DISL,ioos:station:DISL:DISL:1,2009-03-05T03:00:00Z,30.2513,-88.0778,9.68,3.86,128.1,-9999.0,'1111122,1111122,1111122' 
DISL,ioos:station:DISL:DISL:1,2009-03-05T03:30:00Z,30.2513,-88.0778,9.68,3.95,135.5,-9999.0,'1111122,1111122,1111122' 
DISL,ioos:station:DISL:DISL:1,2009-03-05T04:00:00Z,30.2513,-88.0778,9.68,2.72,145.4,-9999.0,'1111122,1111122,1111122' 
DISL,ioos:station:DISL:DISL:1,2009-03-05T04:30:00Z,30.2513,-88.0778,9.68,2.42,143.8,-9999.0,'1111122,1111122,1111122' 
DISL,ioos:station:DISL:DISL:1,2009-03-05T05:00:00Z,30.2513,-88.0778,9.68,2.27,141.3,-9999.0,'1111122,1111122,1111122' 
DISL,ioos:station:DISL:DISL:1,2009-03-05T05:30:00Z,30.2513,-88.0778,9.68,1.44,108.9,-9999.0,'1111122,1111122,1111122' 
DISL,ioos:station:DISL:DISL:1,2009-03-05T06:00:00Z,30.2513,-88.0778,9.68,1.49,113.3,-9999.0,'1111122,1111122,1111122' 